Regional Weather Roundup
Issued by NWS

Home | Current Version | Previous Version | Graphics & Text | Print | Product List | Glossary Off
Versions: 1 2 3 4 5 6 7 8 9 10 11 12 13 14 15 16 17 18 19 20 21 22 23 24 25 26 27 28 29 30 31 32 33 34 35 36 37 38 39 40 41 42 43 44 45 46 47 48 49 50

000
ASUS43 KDMX 260808
RWRIA

WEATHER ROUNDUP FOR IOWA
NATIONAL WEATHER SERVICE DES MOINES IA
300 AM CDT MON SEP 26 2016

NOTE: "FAIR" INDICATES FEW OR NO CLOUDS BELOW 12,000 FEET WITH NO
SIGNIFICANT WEATHER AND/OR OBSTRUCTIONS TO VISIBILITY.

* - THESE STATIONS ARE NOT NWS STATIONS...THUS NOT UNDER NWS
QUALITY CONTROL.  THEY ALSO DO NOT REPORT WEATHER SUCH
AS PRECIPITATION OR FOG.

IAZ001>003-012>014-020>022-031>034-043>046-260900-
   NORTHWEST IOWA

CITY           SKY/WX    TMP DP  RH WIND       PRES   REMARKS
CARROLL *      CLEAR     48  43  81 W9        30.16F
CHEROKEE *     CLEAR     47  39  73 W8        30.16S
DENISON *      CLEAR     45  41  87 CALM      30.17F
LE MARS *      CLEAR     46  39  76 CALM      30.19S
ORANGE CITY *  CLEAR     45  39  81 W6        30.17S
SHELDON *      CLEAR     46  39  76 W8        30.13F
SIOUX CITY     CLEAR     49  40  71 W7        30.20S
SPENCER        CLEAR     48  40  73 W10       30.13S
STORM LAKE *   CLEAR     45  41  87 W10       30.16S
$$

IAZ055>058-069>071-079>083-090>094-260900-
   SOUTHWEST IOWA

CITY           SKY/WX    TMP DP  RH WIND       PRES   REMARKS
ATLANTIC *     CLEAR     48  43  81 CALM      30.19S
AUDUBON *      CLEAR     46  43  87 CALM      30.19S
CLARINDA *       N/A     48  43  81 MISG      30.24R
COUNCIL BLFS * CLEAR     50  41  71 W6        30.22R
CRESTON *      CLEAR     46  43  87 W7        30.20S
HARLAN  *      CLEAR     46  41  81 NW7       30.23S
LAMONI         CLEAR     50  45  83 W8        30.18S
RED OAK *      CLEAR     48  43  81 W7        30.22R
SHENANDOAH *   PTCLDY    48  45  87 SW3       30.23S
$$

IAZ047>049-059>061-072>074-084-260900-
   CENTRAL IOWA

CITY           SKY/WX    TMP DP  RH WIND       PRES   REMARKS
AMES           CLEAR     50  46  86 W10       30.13S
ANKENY *         N/A    N/A N/A N/A MISG        N/A
BOONE *        CLEAR     52  43  71 W9G15     30.13S
CHARITON *       N/A     50  45  81 W8        30.15F
DES MOINES     CLEAR     54  43  66 NW9       30.14S
GRINNELL*      CLEAR     51  46  82 W9        30.12S
KNOXVILLE *    CLEAR     50  45  81 W7        30.13S
MARSHALLTOWN   CLEAR     51  45  79 W7        30.09F
NEWTON *       CLEAR     50  46  87 W6        30.12S
PELLA *        CLEAR     53  46  77 W8        30.14S
PERRY *          N/A     49  45  88 W7        30.16S
$$

IAZ004>006-015-016-023>025-035-036-260900-
   NORTH CENTRAL IOWA

CITY           SKY/WX    TMP DP  RH WIND       PRES   REMARKS
ALGONA *       CLEAR     48  43  81 W10       30.10S
CLARION *      CLEAR     50  45  81 W8        30.10S
ESTHERVILLE    CLEAR     51  39  63 W12       30.09F
FORT DODGE *   CLEAR     50  39  66 W8        30.12R
MASON CITY     CLEAR     50  41  71 W14       30.07F
FOREST CITY *    N/A     50  41  71 W9        30.06S
WEBSTER CITY * CLEAR     48  45  87 W8        30.10S
IOWA FALLS *     N/A     49  44  83 W8        30.10F
$$

IAZ007>011-017>019-026>030-037>042-050>054-066-260900-
   NORTHEAST IOWA

CITY           SKY/WX    TMP DP  RH WIND       PRES   REMARKS
CEDAR RAPIDS   CLEAR     52  49  89 W9        30.07S
CHARLES CITY * CLEAR     52  45  76 W8        30.04F
CLINTON *      CLOUDY    58  52  80 W8        30.05S
DECORAH *      CLEAR     52  45  76 VRB5G13   30.00S
DUBUQUE        CLOUDY    55  47  74 MISG      30.03S
MONTICELLO *   PTCLDY    55  48  76 W8        30.05R
OELWEIN *      CLEAR     50  46  87 W7        30.05F
WATERLOO       CLEAR     53  44  71 W10       30.05F
$$

IAZ064-065-067-068-078-260900-
   EAST CENTRAL IOWA

CITY           SKY/WX    TMP DP  RH WIND       PRES   REMARKS
DAVENPORT      MOCLDY    58  51  78 W9        30.06S
IOWA CITY      PTCLDY    56  48  74 W9        30.09S
MT. PLEASANT * CLOUDY    60  53  79 W6        30.11S
MUSCATINE *    CLOUDY    59  50  72 W8        30.08S
QUAD CITIES    CLOUDY    61  50  67 W14       30.05S
$$

IAZ062-063-075>077-085>089-095>099-260900-
   SOUTHEAST IOWA

CITY           SKY/WX    TMP DP  RH WIND       PRES   REMARKS
BURLINGTON     CLOUDY    56  52  86 W6        30.10S
FAIRFIELD *    CLOUDY    55  48  76 W12       30.11S
FORT MADISON * CLOUDY    59  52  77 CALM      30.11F
KEOKUK *       CLOUDY    59  52  77 W7        30.10F
OSKALOOSA *      N/A     49  46  89 W7        30.13S
OTTUMWA        CLEAR     51  46  83 W7        30.13R
WASHINGTON *     N/A    N/A N/A N/A MISG        N/A
$$

ABBREVIATIONS USED IN REMARKS
   TC - TEMPERATURES IN CELSIUS
  WCI - WIND CHILL INDEX
   HX - HEAT INDEX
  VSB - VISIBILITY
$$





USA.gov is the U.S. government's official web portal to all federal, state and local government web resources and services.